Temperature
17 17 17 17 17 17 17 17 18 18 18 17 17 16 16 16 16 16 16 16 16 16 16 16 16 16 16 16 16 16 16 15 15 15 15 15 15 15
17 17 17 17 17 17 17 17 17 17 18 17 17 16 16 16 16 15 15 16 16 16 16 16 16 16 16 16 16 16 16 15 15 15 15 15 15 15
16 16 16 16 16 16 16 16 16 16 17 17 16 16 16 15 15 15 15 15 15 16 16 16 16 16 15 15 15 15 15 15 15 15 15 15 15 15
16 16 16 16 16 16 16 16 16 16 16 16 16 16 15 15 15 15 15 15 15 15 15 15 15 15 15 15 15 15 15 15 15 15 15 15 15 15
15 15 15 15 15 15 15 15 15 15 15 15 16 15 15 15 15 15 15 15 15 15 15 15 15 15 15 15 15 15 15 15 15 15 15 15 15 15
15 15 15 15 15 15 15 15 15 15 15 15 15 15 15 15 14 15 15 15 15 15 15 15 15 15 15 15 15 15 15 14 14 15 15 15 15 15
15 14 14 15 15 15 15 15 14 15 15 15 15 15 15 14 15 14 15 15 15 14 14 14 14 14 14 14 14 14 14 14 14 14 14 14 14 14
14 14 14 14 14 15 14 14 14 14 14 14 15 15 14 14 14 14 14 14 14 14 14 14 14 14 14 14 14 14 14 14 14 14 14 14 14 14
14 14 14 14 14 14 14 14 14 14 14 14 14 14 14 14 13 13 13 13 14 14 14 14 14 14 14 14 14 14 14 14 14 14 14 14 13 14
14 14 14 14 14 13 13 13 13 13 13 13 13 13 13 13 13 13 13 13 13 13 13 13 14 14 14 14 13 13 13 13 13 13 13 13 13 13
14 14 13 13 14 13 13 13 13 13 13 13 13 13 13 13 13 12 12 13 13 14 13 13 13 13 13 13 13 13 13 13 13 13 13 13 13 13
14 13 14 13 13 13 13 13 13 13 13 12 12 12 12 12 12 12 12 12 13 13 13 12 13 13 13 13 13 13 13 13 13 13 12 12 12 12
13 13 13 13 13 13 13 13 13 12 12 12 12 12 12 12 12 12 12 12 12 12 12 12 12 12 12 13 13 13 13 13 12 12 12 12 12 12
13 13 13 13 13 13 12 12 12 12 12 12 12 12 12 12 12 12 11 11 11 11 11 11 11 11 12 12 12 12 12 12 12 12 12 12 12 12
12 13 13 13 12 12 12 12 12 12 12 12 12 12 12 12 11 11 11 11 11 11 11 11 11 11 11 11 12 12 12 12 12 12 11 11 11 11
12 12 12 12 12 12 12 11 11 11 11 11 11 11 11 11 11 11 11 11 11 11 11 11 11 10 10 11 11 11 11 11 11 11 11 11 11 11
12 12 12 12 12 12 11 11 11 11 11 11 11 11 11 11 11 11 10 10 11 11 11 10 10 10 10 10 10 11 11 11 11 11 10 11 11 11
12 12 12 11 11 11 11 11 11 11 10 10 10 10 10 10 10 10 10 10 10 10 10 10 10 10 10 10 10 10 10 10 10 10 10 10 10 10
12 12 11 11 11 11 11 11 10 10 10 10 10 10 10 10 10 10 10 10 10 10 10 10 9 9 9 10 9 9 9 9 10 10 10 10 10 10
11 11 11 11 10 10 10 10 10 10 10 9 9 9 9 9 9 9 9 9 9 9 9 9 9 9 9 9 9 9 9 9 9 9 9 9 9 9
11 11 10 10 10 10 10 10 9 9 9 9 9 9 9 9 9 9 9 8 8 8 9 9 8 8 8 8 8 9 8 8 8 8 9 9 9 9
10 10 10 10 10 10 9 9 9 9 9 9 8 8 8 8 8 8 8 8 8 8 8 8 8 8 8 8 8 8 8 8 8 8 8 8 8 9
10 10 9 9 9 9 9 9 9 9 8 8 8 8 8 8 7 7 7 7 7 8 8 8 8 8 8 8 8 8 8 8 8 8 8 8 8 8
Wind_Speed
4 4 4 3 3 4 4 4 4 4 3 2 2 2 3 2 2 4 4 5 6 7 7 7 7 7 7 7 7 8 8 9 9 10 11 11 12 12
3 3 3 3 3 3 3 4 4 5 4 2 2 2 2 3 3 4 4 7 8 8 8 7 7 7 7 7 7 8 8 9 9 9 10 10 11 11
3 3 3 3 3 3 3 3 3 4 5 3 2 1 2 3 2 4 5 5 5 9 8 8 8 7 7 7 7 8 8 8 9 9 10 10 11 11
3 3 3 3 3 3 3 3 3 3 5 4 3 2 2 3 3 5 4 5 4 8 10 9 9 8 8 7 8 8 8 8 8 9 9 10 10 11
3 3 3 3 3 3 4 4 3 4 4 4 4 2 3 2 3 4 4 3 5 5 10 11 10 9 9 8 8 8 8 8 8 8 8 8 9 9
3 3 3 3 3 4 4 4 4 4 4 5 4 3 3 2 3 4 3 3 4 4 3 5 8 11 10 9 8 8 8 8 8 7 7 7 7 7
2 2 2 2 3 4 4 4 4 4 4 4 4 3 3 2 3 4 4 4 4 4 4 4 5 6 7 9 9 9 9 8 8 8 7 7 7 7
3 2 3 2 2 3 3 4 4 5 5 4 4 4 3 4 4 5 5 5 4 3 5 6 5 5 5 6 7 9 9 9 9 8 8 8 8 8
2 3 3 1 2 3 3 5 4 4 4 5 5 5 4 4 5 6 5 6 6 4 5 6 5 5 5 4 10 10 10 10 9 9 9 9 9 8
2 3 3 3 2 3 4 4 4 3 4 5 5 5 5 4 5 7 7 7 7 5 4 6 5 5 5 5 10 11 11 11 11 10 10 10 9 10
2 2 3 2 2 3 4 4 4 4 4 3 4 5 5 5 6 6 6 6 6 5 3 5 6 6 6 6 6 13 12 13 12 12 12 11 10 11
2 2 2 1 1 2 4 4 4 5 5 4 5 6 7 7 7 6 7 7 7 6 3 4 6 5 5 5 4 5 8 10 13 14 13 13 11 9
2 2 1 4 2 3 6 4 4 6 6 6 5 5 5 5 5 6 6 7 7 7 4 4 6 6 6 6 6 5 5 5 7 9 12 13 14 11
3 2 0 3 3 4 4 3 5 7 6 5 4 4 4 4 4 5 5 7 7 7 6 6 6 6 7 7 6 5 5 5 5 5 6 9 13 14
3 2 1 2 4 5 5 6 6 6 5 5 5 5 4 4 5 4 5 6 7 7 6 7 8 7 7 8 7 6 6 5 5 5 4 5 6 7
3 2 6 7 6 4 4 5 4 4 5 5 5 5 4 4 4 4 5 5 6 5 5 6 7 8 8 8 7 7 6 5 4 5 5 5 6 6
3 3 3 3 3 3 3 3 4 4 4 5 5 5 5 5 5 5 5 6 6 6 5 4 4 5 6 7 7 6 6 5 5 4 5 5 5 6
3 3 3 3 3 3 3 3 4 4 4 5 5 5 6 6 6 5 5 5 6 6 5 4 3 4 5 4 4 7 6 5 4 4 5 5 5 5
3 3 3 3 3 4 4 4 4 3 3 4 5 5 5 6 5 5 5 5 6 6 5 5 5 5 6 6 3 3 5 5 4 4 4 5 6 5
3 3 3 3 4 4 4 4 4 4 4 4 5 5 5 5 5 5 5 5 6 6 6 5 5 5 6 6 5 5 5 6 5 5 5 5 5 3
3 4 4 4 4 4 4 4 4 4 4 4 5 5 5 5 5 5 5 5 6 6 6 6 4 5 5 5 5 4 3 3 5 5 5 5 5 5
4 4 4 4 4 4 4 4 4 4 5 5 4 5 5 5 5 6 6 5 5 6 6 5 4 5 5 6 6 6 5 4 4 6 6 6 6 6
4 4 4 4 4 3 4 4 4 4 4 5 5 5 4 4 5 5 6 6 6 6 6 6 5 5 5 6 6 6 6 6 5 4 4 4 6 6
Wind_Direction
254 243 254 257 255 253 254 262 268 270 254 232 246 249 241 231 195 236 234 187 203 218 223 221 218 217 217 218 222 226 226 229 228 229 228 227 227 228
266 275 269 261 262 259 255 260 266 275 276 261 253 258 280 253 201 243 239 190 203 210 214 218 218 217 218 221 225 229 230 232 231 230 229 229 229 228
266 250 255 277 273 267 260 261 260 266 267 268 267 242 257 274 240 249 241 230 207 190 200 212 217 218 220 222 227 230 232 233 235 234 234 234 231 229
271 274 270 257 254 268 273 267 265 266 267 269 265 254 252 252 251 258 250 240 242 182 192 205 213 217 218 221 226 227 228 232 233 235 239 239 238 233
267 274 284 283 277 276 270 268 265 255 257 259 257 268 264 255 256 254 254 264 258 196 193 202 209 216 219 222 227 226 222 224 230 234 236 240 242 239
279 283 290 292 286 281 264 263 266 265 256 255 260 258 256 244 261 266 260 252 265 259 228 215 207 212 214 216 218 219 217 219 224 230 233 236 238 240
271 275 279 293 318 300 292 279 271 267 262 260 262 267 272 272 271 273 276 272 256 262 264 241 219 226 216 216 219 218 219 221 224 226 230 232 235 238
264 271 253 226 225 225 272 301 296 270 273 272 270 274 274 278 288 282 282 279 275 254 265 261 242 240 232 229 195 198 210 217 223 225 227 230 233 237
255 265 278 283 248 272 238 225 239 243 260 267 275 281 277 280 283 278 277 280 283 284 268 266 254 251 245 217 169 188 205 216 224 225 227 229 231 234
250 255 268 287 302 300 276 261 261 257 245 247 267 275 284 285 269 270 280 272 264 256 263 272 272 267 267 244 174 187 205 216 220 222 227 230 233 235
249 261 269 277 18 310 275 265 262 258 231 227 260 265 284 281 283 278 275 273 274 265 241 266 275 276 269 260 205 189 203 212 216 219 222 224 229 233
232 229 169 244 351 289 270 269 267 273 275 248 239 241 249 246 235 252 270 273 275 274 266 265 274 278 273 266 261 223 221 217 217 218 218 218 218 231
265 261 212 144 203 257 272 274 285 287 271 267 261 256 252 253 250 250 260 268 275 275 283 269 280 276 273 279 276 267 255 247 229 225 218 213 211 223
281 286 2 140 206 245 259 276 280 273 269 270 272 274 276 276 273 272 270 268 273 274 283 286 283 282 280 278 278 274 263 260 254 248 239 210 213 220
287 339 293 233 239 236 226 244 255 263 277 280 278 278 277 280 281 273 263 260 261 262 264 266 270 273 273 276 279 279 278 270 261 256 247 237 232 229
274 236 212 224 238 255 248 243 260 284 291 288 284 282 284 281 277 283 282 279 275 267 254 258 264 269 270 275 276 279 281 277 276 271 264 254 242 235
287 270 270 261 253 257 263 271 277 281 280 283 284 284 282 282 283 284 282 280 278 276 273 266 264 271 279 285 279 278 279 277 274 277 270 262 254 245
272 272 278 283 285 286 286 284 276 275 282 285 286 285 283 281 282 281 281 279 278 279 283 285 285 286 283 278 283 285 284 285 285 276 271 268 264 260
264 286 291 291 292 294 295 296 295 294 291 285 284 285 288 289 287 285 283 280 285 288 290 290 283 275 274 277 272 284 297 296 290 286 281 276 272 267
277 293 297 299 301 302 302 301 299 297 289 288 290 292 294 293 291 287 283 288 292 292 289 288 286 282 280 285 286 287 272 283 284 280 279 282 281 266
295 297 300 301 300 302 303 303 307 305 301 297 296 298 297 294 291 292 294 300 289 286 289 289 295 284 277 277 275 278 288 264 275 278 277 274 276 266
302 299 302 305 303 300 301 305 309 312 310 298 294 295 298 298 294 292 292 289 283 284 288 290 284 269 266 267 270 274 280 285 264 253 266 273 274 269
310 310 306 305 302 304 304 306 307 306 309 311 309 304 302 299 295 291 290 288 284 281 282 283 280 270 269 267 268 270 271 274 275 275 273 251 238 246
Height
1522 1522 1522 1522 1522 1522 1522 1522 1522 1520 1520 1520 1520 1519 1519 1518 1517 1517 1517 1516 1516 1516 1516 1516 1516 1516 1516 1517 1517 1518 1518 1519 1519 1520 1520 1521 1522 1523
1519 1519 1519 1520 1519 1519 1519 1519 1519 1519 1518 1518 1517 1517 1516 1516 1515 1514 1514 1513 1513 1513 1513 1513 1513 1513 1513 1514 1514 1514 1515 1516 1516 1517 1517 1518 1519 1520
1517 1517 1516 1516 1517 1517 1517 1516 1516 1516 1516 1515 1515 1514 1513 1513 1512 1512 1512 1512 1511 1510 1510 1510 1510 1510 1510 1510 1510 1511 1511 1512 1513 1513 1514 1515 1516 1516
1514 1514 1514 1514 1513 1513 1514 1514 1513 1513 1513 1512 1512 1512 1510 1510 1509 1509 1510 1510 1509 1508 1507 1507 1507 1507 1507 1507 1507 1508 1508 1509 1509 1510 1511 1511 1512 1512
1512 1512 1512 1511 1511 1511 1510 1511 1511 1511 1510 1510 1509 1509 1509 1508 1507 1507 1507 1506 1507 1506 1505 1504 1504 1504 1504 1504 1504 1504 1504 1505 1505 1506 1507 1507 1508 1508
1510 1509 1509 1509 1509 1509 1508 1508 1508 1508 1508 1508 1507 1507 1506 1506 1505 1505 1505 1504 1504 1504 1503 1502 1501 1501 1500 1500 1500 1500 1500 1501 1501 1502 1502 1503 1504 1504
1507 1507 1507 1506 1506 1506 1506 1506 1506 1506 1506 1505 1505 1504 1504 1504 1503 1503 1502 1501 1501 1500 1500 1499 1499 1498 1497 1496 1496 1496 1496 1497 1498 1498 1499 1499 1499 1500
1505 1505 1505 1504 1504 1503 1503 1503 1503 1503 1503 1502 1502 1501 1501 1501 1500 1500 1500 1499 1498 1498 1497 1497 1496 1495 1494 1494 1492 1492 1492 1493 1493 1494 1495 1495 1495 1495
1503 1502 1503 1503 1502 1501 1501 1500 1500 1499 1499 1499 1499 1498 1498 1498 1497 1497 1496 1495 1495 1494 1494 1493 1493 1492 1492 1491 1489 1489 1489 1489 1489 1490 1490 1490 1491 1491
1500 1500 1500 1499 1499 1498 1498 1498 1497 1497 1496 1496 1496 1495 1495 1494 1494 1493 1492 1491 1491 1490 1490 1490 1489 1488 1488 1487 1485 1485 1485 1485 1485 1485 1485 1486 1486 1486
1498 1497 1497 1496 1496 1495 1495 1495 1494 1494 1493 1492 1492 1491 1491 1490 1490 1490 1489 1489 1488 1488 1487 1486 1486 1485 1484 1483 1482 1481 1480 1481 1481 1481 1481 1481 1482 1482
1495 1495 1494 1494 1493 1493 1492 1492 1491 1491 1491 1490 1489 1488 1487 1487 1486 1486 1486 1486 1485 1484 1483 1483 1482 1482 1481 1480 1479 1478 1477 1477 1476 1476 1477 1477 1477 1478
1493 1492 1492 1491 1490 1490 1490 1489 1489 1488 1487 1487 1486 1485 1484 1483 1483 1482 1481 1481 1481 1481 1480 1479 1479 1478 1477 1476 1475 1475 1474 1473 1473 1472 1472 1472 1472 1473
1491 1490 1489 1488 1487 1487 1487 1486 1486 1485 1485 1484 1483 1482 1481 1480 1479 1479 1477 1477 1476 1476 1476 1475 1475 1474 1473 1472 1471 1470 1470 1469 1469 1468 1468 1468 1468 1468
1488 1487 1486 1485 1484 1484 1484 1483 1483 1483 1482 1481 1480 1479 1478 1477 1476 1475 1474 1473 1472 1471 1471 1470 1470 1470 1469 1468 1467 1466 1465 1465 1464 1464 1464 1464 1464 1464
1485 1484 1483 1482 1482 1481 1481 1480 1480 1479 1479 1478 1477 1476 1475 1474 1473 1472 1471 1470 1469 1468 1467 1466 1465 1465 1464 1463 1463 1462 1461 1460 1460 1460 1459 1459 1459 1459
1482 1482 1481 1481 1480 1479 1478 1478 1477 1476 1475 1475 1474 1473 1472 1470 1469 1468 1467 1466 1465 1464 1463 1462 1461 1460 1459 1459 1458 1457 1457 1456 1455 1455 1454 1454 1454 1455
1480 1480 1479 1478 1478 1477 1476 1475 1474 1473 1472 1471 1470 1469 1468 1467 1466 1465 1463 1462 1461 1460 1460 1458 1457 1456 1455 1454 1454 1453 1453 1452 1451 1450 1450 1450 1449 1450
1478 1477 1477 1476 1475 1474 1473 1472 1471 1469 1468 1468 1467 1466 1464 1463 1462 1461 1460 1459 1458 1457 1456 1455 1454 1453 1451 1450 1449 1449 1449 1447 1446 1446 1446 1446 1445 1445
1475 1475 1474 1473 1473 1472 1470 1469 1468 1467 1466 1465 1464 1462 1461 1460 1459 1457 1456 1455 1454 1453 1452 1451 1450 1449 1448 1447 1446 1445 1445 1444 1443 1443 1442 1442 1442 1441
1474 1473 1472 1471 1470 1469 1468 1466 1465 1463 1462 1462 1461 1459 1458 1457 1455 1455 1453 1452 1451 1450 1449 1447 1446 1445 1445 1444 1443 1442 1442 1440 1440 1439 1439 1438 1438 1437
1471 1470 1469 1468 1467 1466 1465 1463 1462 1461 1460 1459 1458 1457 1455 1454 1453 1451 1451 1449 1448 1447 1446 1444 1443 1442 1441 1441 1440 1439 1438 1437 1436 1435 1435 1435 1434 1433
1469 1468 1467 1466 1465 1463 1462 1460 1459 1458 1457 1456 1455 1454 1452 1451 1450 1449 1447 1447 1445 1444 1443 1442 1440 1439 1438 1438 1437 1436 1435 1434 1433 1432 1431 1431 1430 1429